Temperature
23 23 23 24 20 19 22 23 23 23 24 23 23 23 22 21 22 21 21 20 20 20 20 20 19 19 19 18 18 18 18 18 18 18 18 19 19 19 19 19 18 18 18 18 19 19 18 18 18
22 23 23 23 19 20 21 23 23 24 23 23 23 22 21 21 21 21 20 20 20 20 20 20 19 19 19 18 18 18 18 18 18 18 18 18 19 18 18 18 18 18 18 18 19 19 18 18 18
22 23 23 19 20 21 22 23 23 24 23 23 22 22 22 22 22 21 21 20 19 19 19 19 19 19 19 18 18 18 18 18 18 18 18 18 18 18 18 18 18 18 18 18 18 18 18 18 18
22 23 22 19 22 22 22 23 24 23 23 23 22 21 21 21 21 21 20 20 19 19 19 19 19 19 19 18 18 18 18 18 18 18 18 18 18 18 18 18 18 18 18 18 18 18 18 17 17
22 23 20 21 21 21 22 24 24 23 23 23 22 20 21 21 21 21 20 20 20 19 19 19 19 19 19 18 18 18 18 18 18 18 18 18 17 18 18 17 18 18 18 18 18 17 17 17 17
23 19 20 20 21 21 22 25 24 24 23 23 22 20 21 22 21 20 20 20 19 19 19 19 19 19 19 18 18 18 18 18 18 18 18 17 17 17 18 17 17 18 18 18 18 17 17 17 17
21 18 19 20 21 21 24 25 25 23 23 23 23 20 21 22 21 21 20 20 19 19 19 19 19 19 19 19 18 18 18 18 18 18 18 18 17 17 17 17 17 18 18 17 17 16 17 17 17
23 17 19 19 20 21 24 25 26 25 24 24 23 21 21 22 21 21 20 20 19 19 19 19 19 19 18 18 18 18 18 18 18 18 18 18 18 18 18 17 17 17 17 17 16 16 16 16 16
22 18 19 19 20 21 24 25 26 25 24 23 23 24 24 22 21 21 20 20 20 20 19 19 19 19 19 18 18 18 18 18 18 17 17 18 18 17 17 17 17 17 16 16 16 16 16 16 16
21 19 20 21 21 23 25 25 26 25 24 23 23 24 24 22 22 21 21 21 20 20 20 20 19 19 19 19 18 18 18 18 17 17 17 17 18 17 17 17 17 17 16 16 16 16 16 16 16
21 21 21 22 23 24 25 26 26 25 24 24 24 24 24 22 22 22 22 21 21 21 20 20 20 19 19 19 18 18 18 18 17 17 17 17 17 17 17 17 17 17 16 16 16 16 16 16 16
20 21 21 22 23 24 25 25 25 25 26 26 26 25 25 23 23 23 22 22 21 21 21 20 20 20 19 19 19 19 18 18 17 17 17 17 17 17 17 17 17 16 16 16 16 16 16 16 16
20 21 21 22 23 24 24 25 25 26 26 26 26 25 25 24 24 24 23 22 22 21 21 21 21 20 20 19 19 19 18 18 17 17 17 17 17 17 17 17 17 16 16 16 16 16 16 16 16
20 20 21 22 23 24 24 24 25 26 26 26 26 25 25 25 24 23 23 22 22 22 21 21 21 20 20 20 19 19 18 18 17 17 17 17 17 17 17 17 17 16 16 16 16 16 16 16 15
20 21 22 23 23 24 24 23 24 27 26 26 26 25 25 24 24 23 23 23 23 22 21 21 21 20 20 19 19 18 18 18 17 17 17 17 17 17 17 17 16 16 16 16 16 16 16 16 15
21 21 21 22 24 24 23 23 23 26 25 24 24 24 24 23 23 23 23 22 22 22 22 21 21 21 20 19 19 18 18 18 17 17 17 17 17 17 16 17 17 16 16 16 16 16 16 16 16
20 20 21 22 24 24 23 22 23 25 25 24 23 24 24 23 22 22 22 22 22 22 22 22 21 21 20 19 19 18 18 18 17 17 17 17 17 17 16 17 17 17 16 16 16 16 16 16 16
20 20 21 21 23 23 23 22 23 24 24 24 23 23 23 23 22 22 22 22 23 23 22 21 21 20 20 19 19 18 18 17 17 17 17 17 17 17 17 17 17 17 17 16 16 16 16 16 16
21 21 20 21 23 23 22 22 22 23 22 22 22 21 21 22 22 22 22 23 23 22 21 20 20 20 19 19 19 18 18 18 17 17 17 17 17 17 17 17 17 17 17 17 17 16 16 15 15
21 20 20 21 22 22 21 21 21 21 21 22 22 21 20 21 22 22 23 22 22 21 20 19 19 19 19 19 19 18 18 17 17 17 17 17 17 17 17 17 17 17 17 17 17 17 16 16 15
21 20 20 20 21 22 21 20 20 21 22 22 21 21 20 21 22 22 22 21 21 21 20 19 19 18 18 18 18 18 17 17 17 17 17 17 17 17 17 17 17 17 17 17 17 17 17 17 16
20 22 21 21 20 19 20 18 19 19 19 19 19 18 20 21 22 22 21 21 21 20 20 19 18 18 18 18 17 17 17 17 17 17 17 17 17 17 16 16 17 17 17 17 17 17 17 17 16
21 21 20 20 20 18 19 18 18 19 20 19 18 18 20 21 21 21 21 20 20 20 19 19 18 17 17 17 17 17 16 16 16 16 16 16 16 16 16 16 16 16 17 17 17 17 17 17 16
21 21 19 17 17 18 19 18 18 18 19 20 19 19 20 21 21 21 21 20 20 20 19 19 18 17 17 17 16 16 16 16 15 15 15 15 15 16 16 16 16 16 16 16 17 17 17 16 16
21 19 17 17 16 17 18 18 18 20 19 19 19 20 21 22 22 21 21 21 21 20 19 19 18 17 17 16 16 16 15 15 15 15 15 15 15 15 15 15 15 15 15 16 16 16 16 16 16
19 18 17 17 17 16 18 17 18 20 20 21 21 22 22 22 22 22 22 22 21 20 19 18 18 17 16 16 15 15 15 15 15 15 15 15 15 15 15 14 14 14 14 15 15 16 16 16 16
19 18 18 17 17 17 17 17 19 20 21 21 21 21 22 22 23 23 22 22 21 20 19 18 17 17 16 16 15 15 15 15 15 15 15 14 14 14 14 14 14 14 14 14 15 15 15 16 16
19 18 15 16 16 16 17 17 18 20 20 21 20 21 22 23 23 23 23 22 21 20 19 18 17 17 17 16 15 15 15 15 15 15 15 14 14 14 14 14 14 14 14 14 14 15 15 15 16
18 18 16 14 15 15 16 17 18 19 19 19 19 21 22 23 23 23 23 22 21 20 19 18 17 17 17 16 16 15 15 15 15 15 15 15 15 15 14 14 14 14 14 14 14 15 15 15 16
16 16 15 16 15 14 14 16 18 18 18 18 20 21 22 22 22 22 22 22 21 20 19 18 17 17 17 16 16 15 15 15 15 15 15 15 15 15 15 15 14 14 14 14 14 15 15 15 15
Wind_Speed
4 2 1 4 6 5 2 3 3 3 0 2 3 7 7 5 2 2 1 7 7 8 10 12 12 11 10 10 11 12 13 14 14 13 12 12 12 12 13 14 14 14 13 11 10 11 11 12 11
1 1 3 6 5 3 5 4 3 2 3 5 5 4 4 2 2 4 4 6 8 9 9 11 12 12 11 11 11 12 14 15 14 13 12 11 11 12 13 13 14 14 13 11 10 11 11 11 11
1 3 5 5 3 2 5 5 3 3 5 3 4 3 2 4 4 5 5 10 9 7 8 10 13 12 12 11 12 13 14 15 15 14 12 11 10 11 12 13 13 13 12 11 11 10 9 9 10
4 5 5 4 1 3 5 6 1 7 2 3 4 4 2 2 6 5 8 11 10 7 8 10 13 12 12 12 13 14 14 14 14 14 13 11 11 11 11 12 13 12 12 11 10 10 9 8 7
4 4 5 3 3 6 6 6 2 6 5 3 4 4 2 2 5 8 10 10 9 7 7 9 12 12 12 12 13 14 14 14 14 14 13 12 12 12 11 10 11 11 12 11 10 9 9 7 9
5 5 5 3 3 7 6 4 0 4 4 4 6 5 1 2 6 7 8 7 7 7 7 9 12 12 13 13 14 14 14 14 14 14 12 12 12 12 12 11 10 11 11 11 10 10 10 12 14
5 5 5 5 1 5 5 2 2 5 4 5 7 6 1 2 5 7 8 7 6 6 5 6 9 11 13 14 14 14 13 13 13 13 13 13 13 13 13 12 11 11 11 12 12 11 11 14 13
5 6 4 3 4 5 5 3 2 5 4 4 6 8 6 6 7 9 8 7 6 5 5 5 6 7 9 12 14 14 14 14 13 13 13 13 13 13 14 12 11 11 12 13 13 13 14 15 14
4 5 4 6 6 6 5 2 2 2 6 4 4 6 5 12 12 9 6 4 5 5 4 5 5 6 8 9 12 13 14 14 13 13 13 11 9 10 11 11 11 11 12 13 14 14 14 15 14
4 4 9 6 6 5 3 1 2 3 3 2 2 3 8 14 13 11 8 8 8 7 6 5 5 5 6 6 8 9 9 11 11 10 10 10 9 7 8 9 11 11 11 12 13 13 14 13 12
3 6 5 5 6 5 4 2 1 4 2 6 7 8 12 11 11 11 10 9 9 8 8 7 6 6 5 4 5 6 7 8 9 9 10 10 8 5 5 5 7 9 10 10 10 11 11 12 10
2 3 2 3 2 3 3 2 1 4 6 6 8 12 13 16 15 15 13 11 9 8 10 10 10 8 7 6 5 6 6 6 6 9 11 10 5 4 4 4 5 6 7 8 7 8 11 12 11
3 2 2 5 6 4 3 4 4 5 7 4 9 11 14 17 16 14 12 10 10 11 11 12 12 12 10 8 5 5 5 6 8 10 11 11 6 5 4 4 4 5 7 6 5 7 9 8 8
3 3 5 6 5 3 4 5 3 8 4 7 11 13 14 15 15 12 11 11 12 12 12 10 12 12 10 8 6 5 5 6 8 9 11 12 9 6 4 3 4 4 6 6 6 7 7 6 6
2 2 5 4 4 4 3 6 8 7 5 8 10 11 11 11 11 12 13 13 13 12 13 14 14 11 9 7 7 4 5 7 6 8 11 12 11 8 5 4 4 5 7 8 7 6 7 5 5
1 2 2 5 3 3 7 7 11 4 6 8 7 7 8 7 8 9 9 10 11 11 13 16 14 12 10 8 7 5 5 6 6 8 11 12 12 11 7 5 5 7 8 6 5 4 5 5 5
3 1 2 6 3 1 4 7 10 2 7 8 8 8 6 5 5 3 4 7 10 14 15 16 13 11 11 10 8 7 4 5 6 8 9 11 13 12 8 5 5 9 5 4 6 3 4 5 6
4 3 3 5 4 0 4 9 13 4 6 8 9 8 7 7 4 2 3 4 5 7 9 10 8 5 7 7 5 4 4 5 4 6 8 11 12 13 10 5 7 9 6 5 5 5 3 4 6
2 3 5 8 7 4 9 11 14 8 5 8 9 9 9 6 1 3 5 4 1 2 4 5 6 5 6 4 4 4 4 4 4 4 6 9 11 12 10 6 7 7 8 9 8 5 5 4 4
3 4 6 9 8 5 8 9 10 7 6 8 11 12 9 4 1 4 5 4 1 3 4 5 5 6 6 4 3 3 3 2 3 2 3 8 10 11 10 9 8 9 7 8 8 7 5 3 4
5 5 6 8 8 4 3 7 7 6 4 3 5 8 8 8 7 5 3 2 1 3 5 5 5 6 6 5 4 3 3 3 2 3 4 6 9 10 9 8 9 9 9 10 10 10 8 6 3
5 6 6 8 6 6 2 4 8 6 7 4 5 8 10 8 7 6 6 5 4 3 3 5 6 6 6 7 6 5 5 4 4 4 4 5 6 7 7 7 8 10 9 10 12 10 6 9 6
6 6 5 6 6 4 3 4 8 5 7 7 7 8 9 9 9 8 8 7 5 4 5 5 6 6 6 6 7 5 4 3 3 4 6 5 5 5 5 5 5 8 7 8 9 8 6 6 6
3 2 3 4 3 3 6 6 7 5 7 6 6 8 9 9 8 8 7 6 4 3 3 4 4 4 5 5 5 5 6 5 5 5 7 6 5 6 7 7 4 4 5 7 8 7 8 6 6
4 1 4 5 4 6 5 3 8 7 7 7 8 10 9 9 9 9 9 9 8 7 5 4 3 3 4 6 6 6 7 7 7 6 8 8 7 6 8 7 5 3 4 5 6 6 6 6 7
6 9 7 5 5 5 4 5 8 6 5 4 5 7 9 10 10 11 11 10 8 7 6 5 5 3 4 5 5 5 6 5 4 5 6 7 6 6 9 8 5 3 5 6 6 5 5 6 7
4 6 8 6 4 2 6 7 9 4 2 2 4 6 9 11 12 12 10 9 8 8 8 7 6 5 5 5 5 5 6 6 6 6 6 5 6 7 9 9 7 4 5 6 7 6 6 6 6
2 4 5 6 6 4 6 5 5 6 5 4 4 7 9 10 10 10 8 8 8 8 7 7 6 6 4 4 4 4 5 6 5 6 7 6 6 6 8 8 7 6 6 6 5 4 4 6 6
2 2 4 4 4 6 4 7 7 6 6 6 8 8 9 10 10 9 8 7 7 7 8 8 7 6 5 5 4 3 4 5 5 5 6 6 6 7 8 9 8 8 8 7 5 4 4 5 5
2 3 5 4 4 4 4 8 8 6 6 6 7 8 8 9 9 8 7 7 7 8 8 8 8 7 7 6 6 5 5 6 6 6 6 6 6 7 7 8 7 7 6 6 6 6 7 7 7
Wind_Direction
342 8 88 61 47 44 346 284 242 268 293 35 63 91 105 115 152 201 99 138 141 145 162 170 169 168 167 167 158 152 147 140 136 135 134 131 130 131 129 128 124 117 111 104 93 86 80 73 71
349 15 47 52 64 35 304 277 244 240 135 116 82 87 99 117 130 132 133 153 145 151 161 165 169 166 165 165 158 155 148 140 137 136 134 135 139 138 135 130 125 116 108 100 92 88 83 74 78
6 38 75 61 62 186 284 295 259 108 133 104 88 72 119 154 159 170 169 145 141 148 156 169 165 162 161 161 156 152 149 143 140 137 136 138 138 135 133 130 123 114 105 95 89 87 84 79 84
61 46 61 83 29 252 253 284 233 128 138 83 114 95 33 347 159 162 138 138 141 146 153 168 161 159 159 158 152 150 150 148 143 138 138 136 128 129 135 130 120 111 103 93 87 88 87 80 83
56 80 81 83 324 296 279 282 212 146 158 132 123 116 50 7 124 135 140 143 146 151 154 163 160 157 156 155 149 151 151 148 142 137 138 138 131 131 135 129 115 106 98 93 90 93 87 74 97
58 69 98 152 288 309 294 285 232 119 137 141 133 126 198 167 141 143 136 133 140 148 148 158 161 157 155 152 150 153 152 147 142 138 137 135 131 128 131 128 111 98 94 94 94 91 80 90 104
106 93 132 167 143 318 300 301 157 145 169 186 148 128 209 204 152 121 111 113 123 129 125 141 157 159 156 152 151 153 153 148 143 137 134 133 131 130 129 125 108 98 97 97 94 85 88 99 102
117 100 98 172 158 264 277 296 212 171 190 152 130 146 195 198 134 111 103 104 113 115 126 135 143 144 144 150 154 154 155 152 147 139 136 136 137 136 132 127 114 106 103 98 91 83 97 103 96
106 84 164 201 183 239 263 307 9 114 122 143 179 184 187 142 131 120 112 117 140 145 142 144 132 124 130 147 160 159 160 159 152 146 143 132 121 124 128 132 123 113 109 101 89 85 100 100 90
99 144 204 203 204 241 270 278 344 73 105 142 101 107 133 141 151 159 167 173 178 176 172 157 149 141 144 156 148 152 155 160 152 150 141 130 124 127 133 140 133 124 113 99 87 88 102 97 85
143 185 207 222 232 252 271 286 109 120 181 206 193 164 145 154 167 183 189 184 188 179 180 174 171 158 154 144 139 147 147 154 151 147 144 135 127 126 121 115 115 105 97 87 82 86 104 101 89
188 238 221 256 275 278 281 298 315 185 225 220 187 163 160 170 183 194 199 195 184 177 189 185 179 173 175 172 168 167 160 163 162 157 153 143 133 129 130 126 119 104 97 86 76 89 106 98 88
209 254 255 268 284 276 285 271 269 253 253 207 148 156 176 184 193 200 203 196 188 192 195 196 190 186 186 184 183 177 172 171 171 165 165 157 147 151 146 145 137 114 107 97 91 108 112 107 96
214 263 282 272 275 271 250 267 238 251 223 162 163 179 191 195 199 199 202 199 198 199 198 201 204 200 192 184 182 182 175 177 173 172 172 167 164 160 157 152 143 132 129 115 111 126 120 113 110
239 312 321 280 251 247 199 274 238 231 170 189 192 196 204 208 205 207 209 208 204 200 197 202 208 203 194 186 184 181 179 182 183 179 176 172 178 175 170 165 154 150 146 127 114 114 114 112 110
158 51 329 291 262 227 159 247 263 226 174 205 208 214 222 220 220 224 224 221 210 200 200 208 210 197 186 183 187 183 179 181 193 184 177 177 186 186 174 177 165 156 152 142 133 136 118 117 116
42 76 271 298 301 127 173 245 273 227 181 202 207 217 212 200 201 223 251 233 217 207 204 206 206 194 184 184 189 190 172 182 193 190 182 181 188 190 179 186 164 162 163 156 154 142 133 130 122
207 210 249 273 298 313 245 260 275 267 194 208 198 197 193 189 184 355 339 298 242 215 206 203 191 164 161 166 175 187 190 197 188 199 195 182 184 188 185 187 168 166 169 167 159 141 120 123 127
193 209 259 267 263 244 247 258 271 285 217 206 191 193 201 196 288 353 2 349 285 184 179 172 156 136 138 146 168 185 208 206 195 207 211 192 187 189 187 186 169 171 179 175 156 136 130 124 127
258 280 282 287 284 239 245 262 272 280 233 212 197 195 191 175 251 315 343 359 242 195 182 164 152 147 158 156 150 165 161 176 173 177 215 209 195 192 195 185 179 177 174 164 162 147 138 142 158
243 233 257 271 305 333 265 294 295 292 288 284 201 177 171 183 201 229 268 286 211 200 193 179 157 150 154 145 122 106 96 96 139 180 199 215 202 194 188 181 177 176 176 178 176 167 156 157 173
261 258 265 274 286 284 271 273 282 287 298 277 183 165 176 188 197 208 223 233 217 190 159 160 160 158 159 157 167 170 171 179 184 178 185 195 201 197 189 179 177 180 183 181 183 175 166 155 159
258 309 307 272 243 258 280 230 279 299 278 255 196 183 185 192 194 200 211 222 219 181 162 164 164 164 166 169 168 163 165 171 162 159 159 157 163 160 153 156 172 186 185 177 177 168 161 154 158
266 341 19 39 78 265 244 205 280 251 236 250 195 193 190 192 200 209 214 216 223 207 181 164 160 155 152 163 167 180 188 188 181 174 165 160 152 140 130 124 142 171 177 175 178 166 162 160 160
181 140 347 339 355 262 290 219 251 259 247 226 201 198 190 192 201 210 210 207 211 209 204 189 180 170 155 167 184 197 198 197 198 184 174 167 161 150 135 123 121 141 167 172 168 170 178 174 174
217 174 188 225 234 286 309 245 258 275 298 218 190 182 183 199 208 212 211 206 204 204 202 201 204 197 173 185 195 195 199 201 201 184 172 171 162 148 141 134 136 158 174 178 172 173 186 188 193
185 204 189 158 176 251 285 288 301 290 338 84 136 167 200 213 216 218 213 204 196 197 203 205 210 208 188 193 190 184 194 199 197 181 171 166 156 150 148 148 156 175 189 187 174 173 178 181 196
169 154 107 141 164 228 283 282 262 284 263 263 232 223 230 232 233 232 220 208 197 194 195 196 205 213 201 195 196 185 195 199 189 174 177 176 168 158 161 165 171 180 194 200 195 179 172 180 195
347 68 105 118 154 162 238 266 230 243 263 258 262 264 259 250 242 238 227 208 197 187 184 188 194 197 192 195 205 192 196 198 186 183 188 181 173 170 175 182 185 190 195 201 204 205 214 215 216
195 187 161 166 220 194 199 261 266 251 265 251 269 278 271 264 252 239 220 196 194 195 191 188 190 197 194 185 195 203 189 187 186 186 186 179 177 181 181 182 190 195 194 194 203 217 222 225 233
Height
1494 1494 1494 1495 1500 1513 1513 1506 1501 1498 1496 1496 1496 1496 1498 1500 1504 1508 1504 1502 1503 1505 1507 1509 1511 1513 1515 1517 1518 1520 1521 1522 1523 1525 1526 1527 1527 1528 1529 1530 1531 1532 1532 1532 1532 1532 1532 1532 1533
1495 1494 1496 1496 1511 1524 1517 1503 1500 1497 1497 1497 1497 1498 1498 1499 1500 1501 1501 1502 1504 1505 1507 1509 1511 1513 1515 1517 1518 1520 1521 1522 1524 1525 1527 1528 1528 1529 1529 1530 1531 1532 1532 1532 1533 1532 1533 1534 1534
1495 1495 1497 1503 1515 1521 1513 1501 1498 1497 1498 1498 1498 1499 1499 1500 1500 1501 1502 1503 1505 1506 1507 1509 1511 1513 1515 1516 1518 1520 1521 1523 1524 1525 1527 1528 1529 1530 1531 1531 1532 1532 1533 1533 1533 1534 1534 1535 1536
1496 1498 1501 1510 1514 1509 1505 1499 1496 1496 1498 1498 1498 1500 1500 1501 1501 1502 1503 1504 1506 1507 1508 1509 1511 1513 1515 1517 1518 1520 1522 1523 1525 1526 1527 1528 1529 1531 1532 1533 1533 1533 1533 1534 1534 1535 1536 1536 1537
1497 1498 1506 1514 1512 1505 1499 1496 1495 1496 1497 1497 1498 1499 1500 1502 1501 1502 1504 1505 1506 1507 1508 1510 1511 1513 1515 1517 1519 1520 1522 1523 1525 1526 1528 1529 1530 1532 1533 1535 1535 1535 1534 1534 1535 1536 1537 1538 1538
1498 1500 1514 1518 1511 1503 1497 1495 1495 1495 1497 1497 1497 1499 1501 1502 1502 1503 1504 1505 1507 1508 1509 1510 1512 1513 1515 1517 1519 1520 1522 1524 1525 1527 1528 1530 1531 1532 1533 1535 1536 1536 1535 1535 1536 1537 1538 1539 1540
1498 1505 1513 1513 1510 1506 1498 1495 1495 1495 1496 1496 1496 1499 1500 1501 1503 1503 1504 1506 1507 1509 1510 1511 1512 1513 1515 1517 1519 1521 1523 1524 1526 1528 1529 1530 1532 1533 1534 1535 1536 1537 1537 1537 1538 1539 1540 1541 1542
1496 1504 1513 1513 1510 1507 1497 1495 1494 1494 1494 1495 1496 1497 1499 1500 1502 1503 1505 1506 1507 1509 1510 1511 1512 1513 1515 1517 1519 1521 1523 1525 1527 1528 1530 1531 1533 1534 1535 1536 1537 1538 1539 1539 1540 1541 1542 1542 1543
1496 1506 1514 1511 1508 1503 1496 1494 1494 1494 1494 1494 1495 1497 1498 1499 1501 1503 1505 1506 1507 1509 1510 1511 1513 1514 1515 1517 1520 1521 1523 1525 1527 1529 1530 1532 1534 1535 1536 1537 1538 1539 1541 1541 1542 1543 1544 1544 1545
1496 1507 1505 1500 1499 1497 1494 1493 1493 1493 1494 1495 1495 1496 1497 1498 1500 1502 1503 1505 1507 1509 1510 1512 1513 1514 1516 1517 1519 1521 1523 1525 1527 1528 1530 1532 1534 1536 1537 1538 1539 1540 1542 1543 1544 1545 1546 1546 1546
1494 1499 1496 1496 1495 1495 1493 1492 1492 1493 1494 1494 1493 1494 1496 1498 1499 1501 1503 1505 1506 1508 1510 1512 1513 1514 1516 1517 1519 1521 1522 1524 1526 1527 1530 1532 1534 1535 1536 1538 1540 1541 1543 1544 1546 1547 1548 1548 1548
1495 1494 1494 1494 1494 1493 1492 1492 1492 1492 1492 1492 1493 1494 1495 1497 1498 1500 1501 1503 1505 1507 1509 1510 1512 1513 1514 1516 1517 1519 1521 1523 1525 1527 1529 1531 1533 1534 1536 1538 1540 1542 1544 1545 1547 1548 1548 1549 1549
1495 1493 1493 1493 1493 1492 1491 1491 1491 1490 1490 1490 1491 1493 1494 1495 1496 1498 1500 1502 1504 1505 1507 1508 1509 1511 1512 1514 1515 1517 1519 1522 1524 1526 1528 1530 1532 1534 1536 1538 1541 1543 1545 1546 1548 1549 1549 1549 1550
1493 1492 1491 1490 1490 1489 1489 1489 1490 1487 1488 1488 1489 1490 1492 1493 1494 1496 1497 1499 1501 1503 1505 1507 1508 1509 1510 1512 1514 1516 1518 1521 1522 1524 1527 1529 1531 1534 1536 1538 1541 1543 1545 1547 1548 1549 1550 1550 1551
1492 1492 1491 1488 1487 1487 1488 1490 1486 1484 1486 1486 1487 1488 1489 1491 1492 1493 1494 1497 1499 1500 1502 1504 1506 1508 1509 1511 1513 1515 1517 1519 1521 1523 1526 1528 1531 1533 1536 1538 1541 1543 1545 1547 1548 1550 1550 1551 1552
1493 1496 1499 1490 1486 1485 1491 1495 1481 1482 1484 1484 1485 1486 1487 1489 1490 1491 1492 1494 1496 1498 1499 1501 1503 1505 1507 1509 1512 1514 1515 1517 1520 1522 1524 1526 1529 1532 1535 1537 1540 1543 1544 1546 1548 1549 1550 1551 1552
1498 1504 1501 1493 1485 1485 1489 1491 1480 1480 1481 1482 1483 1484 1485 1485 1486 1487 1489 1492 1493 1494 1495 1497 1500 1502 1504 1506 1509 1511 1513 1515 1518 1520 1522 1524 1527 1530 1533 1536 1538 1541 1543 1544 1546 1549 1550 1551 1552
1504 1503 1501 1496 1486 1485 1489 1488 1479 1477 1479 1480 1480 1481 1481 1482 1484 1485 1487 1489 1490 1490 1490 1492 1496 1499 1502 1504 1506 1509 1510 1512 1515 1517 1520 1522 1524 1527 1531 1534 1536 1538 1540 1542 1544 1547 1550 1551 1552
1496 1498 1500 1493 1484 1487 1488 1486 1478 1474 1477 1477 1477 1477 1479 1480 1482 1484 1486 1486 1486 1486 1486 1487 1491 1495 1499 1501 1503 1505 1507 1510 1512 1514 1517 1519 1521 1524 1527 1530 1533 1535 1537 1539 1542 1545 1548 1550 1551
1496 1500 1499 1491 1482 1485 1487 1485 1477 1473 1472 1471 1472 1474 1477 1480 1482 1484 1484 1484 1483 1483 1484 1485 1488 1492 1495 1498 1500 1502 1504 1507 1509 1510 1512 1515 1517 1520 1523 1526 1529 1531 1534 1536 1539 1542 1545 1547 1550
1495 1498 1496 1494 1485 1483 1486 1488 1480 1472 1470 1469 1470 1472 1476 1479 1481 1482 1482 1482 1482 1482 1482 1484 1487 1489 1492 1495 1497 1499 1500 1502 1505 1506 1507 1510 1512 1515 1518 1521 1525 1528 1530 1533 1536 1539 1542 1544 1547
1496 1487 1488 1490 1495 1499 1491 1505 1486 1476 1472 1469 1469 1470 1473 1477 1479 1480 1480 1481 1481 1481 1481 1483 1484 1486 1489 1492 1494 1495 1497 1498 1500 1501 1503 1505 1508 1510 1513 1516 1520 1523 1527 1530 1533 1536 1539 1542 1544
1489 1484 1487 1489 1493 1499 1495 1501 1492 1477 1474 1468 1467 1469 1472 1475 1478 1479 1479 1480 1480 1481 1480 1481 1482 1484 1486 1488 1490 1492 1493 1494 1495 1496 1497 1499 1502 1504 1507 1510 1514 1519 1523 1526 1529 1532 1535 1539 1542
1484 1487 1490 1495 1500 1509 1496 1500 1496 1479 1470 1465 1466 1468 1470 1474 1476 1477 1477 1478 1479 1480 1480 1481 1482 1482 1483 1485 1487 1488 1489 1489 1490 1491 1492 1493 1496 1499 1502 1505 1509 1514 1518 1522 1525 1529 1532 1536 1539
1485 1498 1513 1513 1517 1513 1495 1496 1490 1468 1464 1463 1463 1466 1468 1472 1473 1474 1475 1476 1478 1479 1480 1481 1481 1481 1482 1483 1484 1485 1485 1486 1487 1488 1489 1490 1492 1494 1497 1500 1504 1508 1514 1518 1522 1526 1529 1533 1536
1486 1494 1511 1519 1520 1511 1497 1498 1480 1464 1460 1459 1461 1464 1467 1469 1470 1471 1473 1474 1476 1477 1479 1479 1480 1480 1481 1482 1483 1483 1483 1484 1485 1486 1487 1488 1489 1491 1493 1496 1500 1505 1510 1515 1519 1522 1526 1530 1533
1484 1488 1485 1502 1507 1509 1503 1491 1474 1461 1460 1460 1461 1463 1465 1466 1467 1469 1470 1472 1474 1475 1477 1478 1478 1479 1479 1480 1482 1482 1483 1483 1484 1485 1486 1487 1488 1489 1491 1493 1497 1502 1507 1512 1516 1520 1524 1527 1530
1479 1483 1495 1502 1513 1516 1505 1496 1486 1467 1463 1461 1462 1462 1463 1464 1465 1466 1468 1469 1471 1473 1475 1476 1477 1477 1478 1479 1480 1481 1482 1483 1484 1484 1486 1487 1489 1490 1492 1495 1499 1503 1506 1509 1514 1518 1521 1524 1526
1484 1487 1493 1500 1502 1512 1513 1499 1471 1467 1464 1463 1462 1461 1461 1462 1462 1463 1465 1467 1469 1471 1472 1473 1474 1476 1477 1478 1479 1480 1482 1483 1483 1484 1486 1488 1490 1491 1493 1496 1499 1503 1506 1509 1512 1515 1518 1520 1523
1484 1487 1493 1501 1503 1504 1509 1497 1461 1462 1460 1460 1459 1459 1459 1459 1460 1461 1462 1464 1466 1468 1469 1471 1472 1474 1476 1477 1478 1479 1480 1481 1483 1484 1486 1488 1490 1493 1494 1497 1500 1503 1506 1509 1511 1513 1515 1517 1518